Goole, United Kingdom
Current Conditions -  °F | °C
As of 8:20 AM on Thursday 27 Nov 2014 (Local Time) from EGCN Reporting Station
Moderate Fog Moderate Fog  
Wind Chill: 45°   Ceiling: 100
Heat Index: 45°   Visibility: 0.4mi
Dew Point: 45°   Wind: 3mph
Humidity: 100%   Direction: 350°N
Pressure: 29.65"   Gusts: NA
Location:  53.72°N, 0.87°W
Report Text: EGCN 270820Z 35003KT 0650 R20/0350 FG OVC001 07/07 Q1004
Loading
Personal Weather Stations






























Interactive Weather Map New forecast layout! Learn more

10-Day Weather Forecast

Advertisements
Track Severe Weather on mobile